TimePDT,TemperatureF,Dew PointF,Humidity,Sea Level PressureIn,VisibilityMPH,Wind Direction,Wind SpeedMPH,Gust SpeedMPH,PrecipitationIn,Events,Conditions,WindDirDegrees,DateUTC
12:53 AM,59.0,48.9,69,30.01,10.0,SSW,5.8,-,N/A,,Overcast,200,2013-06-18 07:53:00
1:53 AM,57.0,48.9,74,30.00,10.0,South,4.6,-,N/A,,Partly Cloudy,190,2013-06-18 08:53:00
2:53 AM,55.9,48.9,77,29.99,10.0,SSW,5.8,-,N/A,,Clear,200,2013-06-18 09:53:00
3:53 AM,52.0,48.0,86,29.99,10.0,Calm,Calm,-,N/A,,Clear,0,2013-06-18 10:53:00
4:53 AM,51.1,48.0,89,29.99,10.0,Calm,Calm,-,N/A,,Clear,0,2013-06-18 11:53:00
5:53 AM,48.0,46.9,96,30.00,10.0,Calm,Calm,-,N/A,,Partly Cloudy,0,2013-06-18 12:53:00
6:53 AM,52.0,48.9,89,30.00,10.0,Calm,Calm,-,N/A,,Partly Cloudy,0,2013-06-18 13:53:00
7:53 AM,55.9,50.0,80,29.99,10.0,WNW,3.5,-,N/A,,Partly Cloudy,290,2013-06-18 14:53:00
8:53 AM,59.0,46.0,62,29.99,10.0,SSW,8.1,-,N/A,,Scattered Clouds,210,2013-06-18 15:53:00
9:53 AM,62.1,46.9,58,29.98,10.0,South,10.4,-,N/A,,Mostly Cloudy,180,2013-06-18 16:53:00
10:53 AM,63.0,46.0,54,29.97,10.0,SSE,10.4,18.4,N/A,,Mostly Cloudy,160,2013-06-18 17:53:00
11:53 AM,64.9,45.0,48,29.96,10.0,SSW,9.2,-,N/A,,Partly Cloudy,210,2013-06-18 18:53:00
12:53 PM,66.0,45.0,47,29.95,10.0,SSW,11.5,-,N/A,,Mostly Cloudy,200,2013-06-18 19:53:00
1:53 PM,66.9,46.9,49,29.94,10.0,Variable,4.6,-,0.00,,Mostly Cloudy,0,2013-06-18 20:53:00
2:53 PM,66.0,51.1,59,29.94,10.0,Variable,4.6,-,0.13,,Mostly Cloudy,0,2013-06-18 21:53:00
3:53 PM,66.9,46.0,47,29.94,10.0,South,8.1,-,N/A,,Mostly Cloudy,180,2013-06-18 22:53:00
4:29 PM,62.1,46.9,58,29.95,10.0,West,13.8,-,N/A,,Mostly Cloudy,270,2013-06-18 23:29:00
4:34 PM,62.1,46.9,58,29.95,10.0,West,13.8,-,N/A,Thunderstorm,Mostly Cloudy,270,2013-06-18 23:34:00
4:53 PM,60.1,48.9,67,29.95,10.0,West,13.8,-,N/A,Thunderstorm,Mostly Cloudy,270,2013-06-18 23:53:00
5:53 PM,59.0,53.1,81,29.95,10.0,NNW,4.6,-,0.00,,Partly Cloudy,330,2013-06-19 00:53:00
6:53 PM,62.1,52.0,70,29.95,10.0,NW,3.5,-,N/A,,Mostly Cloudy,320,2013-06-19 01:53:00
7:53 PM,59.0,48.9,69,29.95,10.0,WNW,11.5,-,0.00,,Mostly Cloudy,300,2013-06-19 02:53:00
8:53 PM,57.0,46.9,69,29.96,10.0,West,3.5,-,N/A,,Partly Cloudy,280,2013-06-19 03:53:00
9:53 PM,55.9,46.9,72,29.97,10.0,WSW,3.5,-,N/A,,Overcast,250,2013-06-19 04:53:00
10:53 PM,55.9,48.9,77,29.97,10.0,Calm,Calm,-,N/A,,Overcast,0,2013-06-19 05:53:00
11:53 PM,55.0,48.9,80,29.97,10.0,West,3.5,-,N/A,,Overcast,260,2013-06-19 06:53:00